Theta_e
315 317 319 321 324 327 325 324 322 322 321 314 315 318 317 319 319 319 319 319 319 318 317 317 317 317 317 317 318 318 318 318 318 316 317 324 322 321 323 322 324 325 328 333 335 337 340 340 340 340 341 342 342 343 342 342 340 340 341 341 342 341 341 341 340 338 336 336 338 338 336 336 336 337 337 336 335 336 333 330 330 328 323 319 319 318 317 322 331 332 333 338 339 340 342 340 339
316 318 321 324 325 328 327 324 321 318 316 312 314 318 317 319 320 320 319 319 319 317 314 315 316 316 314 314 315 316 318 318 318 318 321 323 319 320 321 321 324 325 327 330 334 336 339 340 340 340 340 341 341 341 341 341 340 340 342 342 341 341 340 338 337 336 337 338 338 337 336 336 336 337 336 335 335 337 335 331 329 330 327 322 321 323 324 328 334 336 338 340 339 341 341 338 338
318 320 323 325 325 326 326 324 318 314 313 312 314 319 318 319 320 319 318 318 317 314 313 314 315 316 315 315 316 317 318 317 317 318 321 320 319 321 320 321 323 325 326 327 332 334 337 338 339 340 340 340 340 339 340 340 340 340 342 342 341 340 338 337 337 337 339 339 338 337 336 336 335 334 335 336 336 336 336 333 330 331 332 327 323 326 330 332 335 338 339 340 340 342 339 337 339
320 322 324 326 325 324 325 323 319 314 312 312 313 318 319 318 318 318 317 317 315 313 313 315 315 316 316 317 317 316 317 317 318 317 319 320 319 319 318 321 324 324 326 326 328 330 332 335 337 339 340 340 340 340 340 339 340 340 341 341 340 339 338 338 338 338 339 339 338 337 336 336 334 334 336 336 336 337 335 332 332 334 336 333 326 325 330 333 335 339 339 339 341 340 337 337 339
321 321 323 326 326 323 323 322 320 316 312 313 314 317 319 318 318 317 317 316 314 314 314 315 316 315 314 315 315 316 317 317 319 317 318 319 316 316 316 319 324 325 325 326 327 327 329 332 335 337 339 340 340 340 340 340 340 341 341 340 340 339 338 339 338 337 338 338 338 337 337 336 335 336 336 335 336 337 337 334 332 335 337 337 332 325 328 333 335 338 340 339 342 340 336 337 338
321 320 320 322 322 320 321 318 316 314 314 317 315 317 318 317 317 316 316 316 314 313 314 314 315 315 314 315 314 316 318 317 319 318 317 318 315 315 316 317 323 325 325 325 326 327 329 331 333 336 338 340 340 339 341 341 341 342 342 340 340 339 338 339 338 337 337 337 337 337 337 336 336 336 334 334 335 335 336 336 334 334 335 336 336 330 327 329 334 339 340 340 343 340 335 337 337
321 321 321 321 319 319 319 315 314 315 316 318 317 317 317 316 316 314 316 316 314 313 312 313 313 314 315 315 313 316 317 315 317 317 316 317 316 316 316 317 320 324 325 324 325 328 329 331 333 335 337 339 340 339 340 341 341 342 341 341 339 339 338 338 338 337 336 337 336 337 337 336 336 336 335 335 336 334 333 335 336 335 333 334 335 334 330 325 332 340 340 341 343 339 336 338 338
318 321 321 321 320 319 318 315 316 317 317 316 316 316 316 316 315 314 316 315 315 314 312 311 311 313 315 312 313 316 315 313 314 314 313 314 314 315 315 317 319 323 325 324 324 326 329 332 334 336 337 339 339 339 340 340 341 341 341 341 340 339 338 337 337 338 337 336 336 336 336 336 336 337 337 336 336 335 333 334 335 335 334 335 335 335 332 324 332 340 340 341 341 339 338 337 336
316 320 321 321 320 319 317 316 317 317 317 316 315 316 316 315 314 315 315 316 315 314 313 311 311 313 314 312 313 317 316 313 311 311 312 312 312 312 313 315 318 322 324 324 323 323 326 330 333 335 337 339 340 340 340 340 340 340 340 340 340 339 338 338 337 337 337 336 335 335 334 334 335 336 336 336 335 334 334 333 334 336 336 337 336 336 333 325 332 341 341 340 339 339 338 336 335
317 319 320 321 318 316 315 315 317 317 316 315 315 315 315 313 313 314 314 315 314 314 312 308 309 312 313 313 313 316 316 313 310 312 312 311 311 311 311 312 315 319 322 324 324 323 323 326 331 334 335 337 339 340 340 340 340 340 339 339 338 339 339 339 338 338 337 335 334 334 333 333 335 336 336 335 335 334 334 334 334 336 337 338 337 336 333 325 333 341 341 340 339 340 337 336 335
319 318 318 320 315 312 312 314 317 318 317 316 315 314 314 312 312 314 314 314 314 314 311 307 310 311 311 312 314 315 313 311 310 311 311 310 311 310 311 311 313 316 320 323 324 323 322 323 326 331 333 334 337 339 340 340 340 339 338 338 337 338 339 338 338 337 336 334 334 333 332 333 335 336 335 334 334 333 334 335 335 335 336 338 337 335 332 326 334 340 340 340 339 338 337 335 335
319 319 319 318 314 313 314 316 317 319 318 317 316 313 311 311 312 314 314 314 313 313 312 310 311 311 312 313 315 316 312 312 310 310 311 311 311 310 310 311 312 315 318 321 323 323 322 322 322 325 329 331 334 336 338 338 338 338 337 336 336 337 338 338 336 336 335 334 334 333 333 334 335 336 335 333 333 333 333 335 335 335 335 337 337 335 331 329 336 339 339 340 339 338 336 335 334
320 319 320 318 316 317 317 317 318 319 319 317 315 311 309 311 313 313 313 313 312 313 312 311 310 310 312 313 315 316 315 312 310 310 311 311 311 311 311 311 312 314 317 319 322 323 322 321 320 321 323 327 331 333 334 335 336 336 335 335 335 337 337 337 336 335 335 334 334 332 333 334 334 335 335 334 333 334 333 334 334 334 335 337 337 336 334 333 336 338 339 340 338 337 335 335 332
320 319 319 319 316 318 317 317 318 317 316 316 314 309 308 311 312 311 312 312 313 313 311 309 309 310 312 313 315 316 316 312 310 310 310 311 311 311 311 312 313 314 317 319 321 322 322 320 318 318 318 321 325 329 331 331 333 333 334 334 334 336 337 337 335 335 334 334 333 332 333 333 333 334 335 334 333 334 333 333 334 334 335 337 337 336 335 336 337 337 339 339 337 336 335 333 330
318 318 319 319 317 318 318 318 318 316 316 315 312 309 309 311 311 310 311 312 313 311 308 308 308 311 313 313 314 316 315 311 310 310 310 310 311 311 312 312 313 315 317 318 320 320 320 318 316 316 316 318 321 325 328 329 330 332 332 333 334 336 336 336 335 335 334 334 333 332 333 332 333 334 334 333 332 333 332 333 334 334 335 336 337 336 336 337 337 338 339 338 336 336 334 331 331
316 318 319 319 317 317 317 318 317 316 316 315 310 308 311 312 310 310 310 309 311 310 309 309 309 310 312 312 313 316 313 310 309 309 309 311 312 313 313 313 313 314 315 318 319 320 319 317 315 314 315 316 320 324 327 329 330 331 332 332 333 335 336 335 334 335 334 334 333 332 332 331 333 333 332 332 331 332 333 333 334 335 335 335 337 336 336 337 337 337 338 337 335 335 333 332 332
316 319 319 317 316 317 317 318 317 315 316 315 311 309 312 312 309 309 307 306 309 310 309 310 309 310 310 311 313 313 310 309 309 309 310 314 316 317 317 316 315 315 315 315 316 318 318 317 315 314 314 315 319 325 328 330 332 332 331 331 332 333 335 335 334 334 334 333 333 332 331 331 333 333 332 330 330 332 333 334 334 334 334 334 336 336 337 337 337 337 336 335 334 334 334 333 330
317 320 318 315 316 317 316 317 315 314 315 315 314 311 311 312 311 309 308 309 310 310 311 311 310 310 310 312 312 311 309 309 309 310 313 315 317 316 317 317 317 318 317 316 315 315 316 316 316 315 314 315 319 325 328 329 331 332 331 331 331 332 334 334 334 333 333 333 332 332 330 330 333 333 332 330 330 332 333 334 334 333 333 333 333 335 337 337 337 336 335 333 332 332 332 330 327
317 319 318 316 317 316 315 315 314 314 314 314 314 312 310 311 311 309 310 312 312 312 313 313 312 312 312 312 311 310 309 309 311 312 313 314 314 314 314 314 314 315 316 317 318 317 316 315 317 319 317 317 319 323 326 328 329 331 332 332 331 331 333 334 334 334 333 332 332 331 329 331 332 332 332 330 330 332 333 333 334 333 332 332 332 334 336 338 337 334 332 330 330 331 329 327 326
316 317 318 317 317 315 313 313 313 313 312 313 313 311 310 310 309 308 310 312 313 313 314 313 312 312 312 312 311 310 309 310 312 313 313 313 312 312 312 312 312 313 313 315 317 318 319 317 318 322 322 321 322 323 325 328 328 330 331 332 332 331 333 334 334 334 332 332 332 331 330 332 331 331 330 328 329 331 332 333 333 333 332 332 332 333 335 336 335 332 330 328 329 329 326 325 324
315 315 318 316 313 314 313 312 312 311 310 311 312 311 311 309 307 308 310 311 314 314 313 312 311 310 310 310 310 310 310 310 311 310 310 310 310 310 309 310 310 311 312 314 314 315 318 320 320 322 324 324 325 325 325 327 328 330 330 332 333 332 333 334 333 333 332 332 332 331 330 330 329 330 329 327 329 331 331 333 333 332 332 331 332 333 333 333 333 330 329 327 327 326 326 326 326
314 315 316 315 312 314 313 311 311 310 309 309 310 311 310 309 308 309 309 311 313 313 312 310 309 309 308 308 309 309 310 310 309 308 307 308 308 308 308 308 309 310 311 312 313 313 315 318 320 322 324 325 325 326 326 327 327 329 330 331 332 332 333 333 333 333 332 332 331 330 329 329 328 329 329 328 330 330 331 332 332 332 331 330 331 333 331 330 331 329 328 326 326 326 326 327 328
314 315 313 312 312 312 312 310 310 309 308 309 311 309 308 309 311 309 309 311 312 312 310 308 308 309 308 308 309 309 309 308 307 307 307 307 307 307 307 308 308 309 310 311 311 312 313 315 318 320 323 323 324 325 325 326 327 328 329 330 331 331 332 333 333 333 332 331 331 330 329 329 329 327 328 329 329 329 330 331 331 331 330 330 331 332 329 328 330 330 328 326 325 325 325 327 328
313 315 313 311 311 310 311 309 309 308 308 309 309 308 308 311 311 307 308 311 311 310 308 307 309 310 310 309 309 308 307 307 306 307 306 306 306 306 307 307 306 307 308 308 309 310 311 312 314 317 320 322 323 324 324 325 326 327 328 330 331 331 332 332 333 332 332 331 330 329 328 330 330 328 326 327 328 329 329 330 330 329 330 330 330 331 330 329 330 329 328 326 325 325 324 326 326
312 314 312 311 310 309 309 308 307 307 307 308 307 308 310 310 308 307 310 311 309 309 308 308 310 310 309 308 306 306 305 306 306 306 306 305 306 306 306 306 306 306 306 306 307 308 309 310 311 314 318 320 322 323 323 325 325 326 327 329 329 330 331 331 332 332 331 331 330 328 328 329 330 328 324 325 328 328 328 329 329 329 329 329 330 330 330 330 329 328 328 327 326 325 324 325 324
312 312 311 310 311 310 308 308 307 307 307 306 307 311 311 308 307 309 310 309 307 309 309 309 309 308 307 306 304 304 304 305 305 305 305 305 305 305 306 306 306 306 306 306 306 307 308 308 310 312 314 317 321 322 323 324 325 325 326 327 328 329 330 330 332 332 331 331 330 328 327 329 330 328 324 324 327 328 328 328 328 328 329 329 329 329 329 328 327 327 328 327 325 325 324 323 323
309 309 310 309 310 309 308 308 308 307 306 306 309 312 311 307 308 311 310 307 308 311 310 308 308 306 305 304 303 304 304 303 304 304 304 304 304 304 305 305 306 306 306 306 306 306 307 308 309 310 312 315 319 321 322 323 324 325 325 326 327 328 329 330 331 331 331 330 329 328 327 328 329 329 325 324 327 328 327 327 327 327 328 329 329 329 328 325 325 327 328 327 325 324 324 323 323
307 307 309 310 311 309 308 309 309 308 307 306 308 310 309 308 309 312 309 308 310 311 309 307 306 304 303 303 302 303 303 303 302 302 303 303 303 303 304 304 305 306 306 306 307 307 306 307 309 310 312 313 316 319 321 322 323 324 325 325 326 328 328 329 330 331 331 330 329 328 327 328 328 328 325 322 326 328 327 326 327 326 326 327 328 329 328 326 325 327 327 326 325 325 324 323 322
306 306 309 312 312 311 309 309 309 310 308 305 307 309 310 310 311 311 309 309 311 310 308 306 304 303 303 302 302 302 302 302 302 302 302 302 302 302 303 303 304 305 306 306 307 307 307 307 308 310 312 313 315 317 319 321 323 323 324 324 325 327 328 329 330 330 330 329 329 329 328 327 328 328 325 321 324 328 326 326 327 326 326 326 326 328 329 327 327 327 326 325 324 324 323 321 320
307 307 309 313 312 311 311 310 310 310 307 305 308 310 311 312 311 310 309 309 311 309 306 304 303 302 302 301 301 301 301 302 301 301 301 301 301 301 302 302 303 305 305 306 307 306 307 308 308 310 312 314 315 316 318 320 321 322 323 324 324 326 327 328 329 329 330 329 329 328 328 328 327 327 325 321 324 327 326 326 327 326 326 325 325 327 328 327 327 327 325 324 323 322 321 320 319
310 309 310 313 312 311 313 310 309 310 307 307 310 311 311 312 312 310 310 310 309 308 304 303 302 301 301 301 300 300 301 301 301 300 300 300 300 301 301 301 302 304 305 306 307 306 307 307 307 310 311 314 315 316 317 319 320 321 322 324 324 325 326 328 328 329 328 329 328 327 327 328 327 326 324 322 323 327 326 326 326 326 326 325 324 325 325 326 326 325 324 323 322 320 320 319 319
311 310 312 315 312 312 314 310 308 310 308 309 311 311 312 311 311 311 311 310 308 305 303 302 301 300 300 300 300 300 300 300 300 300 300 300 300 300 300 300 301 302 303 305 306 306 306 306 306 308 309 311 314 316 317 318 320 320 321 322 323 324 325 327 328 328 328 328 328 327 326 327 327 325 323 322 323 325 325 325 326 325 325 324 325 325 324 324 324 323 322 322 320 319 319 319 319
313 312 312 315 313 312 313 309 307 308 309 309 310 311 311 311 311 311 310 309 306 303 302 301 300 300 300 299 299 299 299 299 299 300 300 300 300 300 299 300 300 301 302 304 305 306 306 305 305 306 308 310 312 315 317 318 318 318 319 321 322 322 324 326 327 327 327 327 327 326 325 326 327 324 322 322 323 324 324 324 325 325 325 324 325 325 324 323 323 323 322 321 321 319 319 318 318
314 314 314 314 312 312 312 311 308 308 309 309 310 310 311 311 310 310 309 307 304 302 301 300 300 299 299 299 299 298 298 298 298 299 299 299 299 299 299 299 299 300 301 303 304 305 305 305 305 305 306 307 309 312 315 317 317 315 317 320 322 322 322 325 325 325 326 326 326 326 325 325 326 324 322 323 324 324 324 324 324 324 325 324 325 326 325 323 322 322 321 320 320 319 319 319 318
313 313 313 313 312 311 312 312 310 308 308 309 310 311 310 310 309 309 308 305 303 301 300 299 299 299 299 298 298 298 297 297 298 299 299 299 299 299 298 298 298 299 300 301 303 304 304 304 304 304 304 305 307 309 312 316 317 316 315 318 321 322 321 323 324 324 325 326 326 325 325 325 325 324 323 323 324 324 323 323 323 323 323 323 323 324 324 322 321 321 320 319 319 319 319 319 319
311 312 311 312 312 312 311 311 309 307 307 308 309 309 309 309 308 308 306 303 302 301 300 299 299 298 298 298 298 298 297 297 298 299 299 299 299 298 298 298 298 298 298 299 301 302 303 303 303 303 302 302 304 306 309 312 315 317 317 317 319 322 322 322 323 324 324 325 325 325 324 324 324 324 323 324 324 323 323 323 322 322 322 321 321 321 320 319 321 320 319 319 318 318 319 319 319
309 310 311 312 312 312 311 310 309 306 306 307 308 308 308 308 307 307 305 303 301 300 299 299 298 298 298 298 298 297 297 298 298 298 298 298 298 298 298 298 298 297 297 298 300 301 301 301 302 301 301 301 302 304 306 307 310 314 317 318 318 319 322 323 323 323 324 324 324 324 324 324 324 323 323 324 324 323 323 322 322 321 321 320 320 320 318 318 320 320 319 318 318 317 317 317 318
309 311 312 312 312 312 310 309 308 306 305 307 307 307 308 307 306 306 304 302 300 299 298 298 298 298 298 298 297 297 297 298 298 297 298 298 298 298 298 297 297 297 297 298 299 299 299 299 300 300 300 300 300 302 303 304 306 309 312 316 317 317 319 321 322 323 324 324 324 323 323 323 321 321 322 323 323 323 322 322 321 320 320 319 320 319 318 318 320 319 318 317 317 317 316 316 317
310 311 312 312 312 311 310 309 308 306 305 306 307 307 307 306 306 305 303 301 299 298 298 298 297 297 297 297 297 297 297 297 297 297 297 297 297 297 297 297 297 297 297 298 298 299 298 298 298 299 299 299 300 300 301 302 303 304 307 311 315 316 316 318 320 321 323 324 324 323 323 323 322 320 320 321 322 322 321 321 320 320 320 319 319 318 318 319 319 318 317 316 315 315 315 315 318
311 311 311 311 311 310 310 309 307 305 305 305 306 306 306 306 307 305 303 301 300 300 299 298 298 297 297 297 297 297 296 296 296 296 296 297 296 297 297 297 297 296 297 297 298 298 298 298 298 298 299 299 299 299 300 300 301 302 304 308 311 314 315 316 317 319 321 322 323 323 323 323 323 322 320 320 321 320 320 320 320 320 319 319 319 318 318 319 319 318 317 316 315 314 313 314 316
312 311 310 311 309 308 308 307 305 305 306 305 305 304 304 305 306 306 303 302 301 300 298 298 298 297 297 297 297 297 296 296 296 296 296 297 297 296 296 296 296 296 296 296 297 297 297 297 298 298 299 299 299 299 299 299 300 301 303 305 308 311 313 315 316 318 320 322 322 322 323 323 323 323 321 319 319 319 319 319 319 319 319 319 318 317 318 318 318 318 316 316 315 314 313 313 314
311 310 308 308 308 307 306 306 305 305 306 306 303 302 303 304 306 306 304 301 299 298 297 297 297 297 297 297 296 296 296 296 296 296 296 296 296 296 296 296 296 296 296 296 296 297 297 297 297 298 299 298 298 298 299 299 299 300 302 303 305 308 310 312 315 316 318 320 321 321 322 323 323 323 321 319 318 319 319 319 319 319 319 318 317 317 317 316 317 317 317 316 315 314 313 313 314
310 308 306 306 307 306 305 306 305 304 305 306 304 301 302 303 306 306 302 299 298 297 296 296 296 296 296 296 296 296 296 296 295 295 295 295 296 296 295 295 296 296 295 296 296 296 296 297 297 298 298 298 298 299 299 299 299 300 300 302 304 306 308 310 312 314 315 318 319 320 320 321 322 322 322 320 318 318 318 318 318 319 318 317 316 316 316 316 317 317 317 316 315 315 314 314 313
310 307 305 306 306 305 305 306 305 304 305 305 305 303 302 304 307 305 301 299 297 296 295 296 296 296 295 295 295 295 295 294 294 294 294 294 295 295 295 295 295 295 295 295 296 296 296 296 297 297 298 298 298 298 299 299 299 299 300 301 302 303 306 308 310 312 313 315 318 320 320 320 321 321 322 320 318 318 318 318 318 319 318 317 316 316 316 315 316 316 316 316 315 315 315 314 313
309 305 304 305 304 304 306 305 304 304 304 303 304 305 304 306 306 303 301 299 297 295 295 295 295 295 295 295 295 294 294 294 294 293 294 294 294 294 294 295 295 295 295 295 295 296 296 296 296 297 297 298 298 298 298 299 299 299 299 300 300 301 302 304 307 310 311 313 317 320 320 320 320 321 321 320 319 318 317 317 317 318 318 317 317 316 316 315 315 315 315 315 315 315 315 315 314
304 303 303 305 305 305 306 304 303 303 303 302 303 305 304 303 303 301 300 298 296 295 295 295 295 295 295 294 294 294 294 294 294 293 294 294 294 294 294 294 294 294 295 295 295 295 296 296 296 296 297 297 297 298 298 299 298 299 299 299 300 300 300 301 303 306 309 311 314 317 319 320 320 320 320 319 318 318 316 316 317 318 318 317 316 316 315 315 315 315 315 315 314 315 315 315 314
300 303 304 304 304 303 302 302 302 302 303 304 303 302 299 298 300 300 299 296 295 294 294 295 295 294 294 294 293 293 293 293 293 293 294 294 293 293 293 293 293 293 294 294 294 295 295 295 295 296 296 296 297 297 298 299 299 299 299 299 300 300 299 299 301 303 305 307 310 314 317 320 320 320 319 319 318 317 316 315 316 317 317 317 317 316 316 315 315 315 315 315 315 315 315 315 315
302 303 302 301 301 300 300 300 301 300 302 303 301 298 296 296 298 298 296 295 294 294 294 294 294 294 293 293 293 293 293 293 293 293 293 293 293 293 293 293 293 293 293 294 294 294 294 294 295 295 295 296 296 297 297 299 299 299 299 299 299 299 298 298 300 301 302 304 307 309 312 317 321 320 319 319 317 316 316 316 315 316 316 317 317 316 316 315 315 315 314 314 315 314 314 315 314
302 302 300 300 299 299 299 300 299 300 302 302 298 296 296 296 298 298 295 294 294 294 294 294 294 293 293 293 293 293 293 293 292 292 292 292 293 293 293 293 293 293 293 294 294 294 294 294 294 294 294 295 296 296 297 298 299 299 299 299 298 298 298 298 298 299 300 302 304 305 307 312 318 320 318 318 318 316 316 316 315 315 316 316 316 316 315 315 315 314 314 314 314 314 313 314 314
301 302 300 298 297 297 298 299 298 298 300 298 295 296 296 297 299 299 296 294 294 294 294 294 294 293 293 293 293 293 292 292 292 292 292 292 292 293 293 293 293 293 293 293 293 294 294 294 293 294 294 294 295 296 297 297 299 299 299 299 298 298 298 297 297 298 299 299 300 302 303 305 312 318 319 318 318 317 316 315 314 315 316 316 316 316 315 314 314 314 313 313 313 314 313 313 313
300 301 299 298 297 296 297 297 297 297 298 298 297 297 297 298 300 298 295 294 295 294 294 294 294 293 293 293 292 292 292 292 292 292 292 292 292 292 292 292 293 293 292 292 293 293 293 293 293 293 294 294 294 295 296 297 298 299 299 298 298 298 298 297 297 296 297 297 298 299 301 302 305 312 318 318 317 317 316 314 314 314 315 316 316 316 315 315 314 314 313 313 313 313 313 313 313
299 299 299 299 299 298 297 298 297 296 296 298 298 298 298 298 298 296 294 294 294 294 294 293 293 292 292 292 292 292 291 291 292 292 291 292 292 293 293 293 292 292 292 292 292 292 292 292 292 293 293 293 293 294 296 296 297 298 299 299 298 298 298 297 297 296 296 297 297 298 299 300 301 305 313 318 317 317 317 315 314 314 315 315 315 315 316 315 314 314 313 312 312 312 312 312 312
298 297 298 298 297 297 296 297 298 296 296 298 297 297 297 297 297 295 294 294 294 293 293 292 292 292 292 292 291 291 291 291 291 291 291 292 292 293 293 292 292 292 292 291 291 291 291 292 292 292 293 293 293 294 295 296 296 298 299 299 298 298 298 298 297 297 296 296 297 297 298 299 300 301 308 317 317 316 317 315 315 314 314 315 315 315 315 314 314 313 313 312 312 312 312 312 312
297 295 296 296 295 295 294 294 296 295 295 296 296 296 296 295 296 295 294 294 293 293 292 291 291 291 291 291 291 291 291 291 291 291 291 292 293 293 292 292 292 292 291 291 291 291 291 292 292 292 292 293 293 293 294 295 296 297 298 299 298 298 298 298 297 297 297 296 296 297 297 297 299 299 304 314 317 316 316 316 315 314 314 314 314 314 314 313 313 312 312 312 312 312 312 312 311
295 296 296 295 294 294 294 293 293 293 294 295 296 295 294 294 295 295 293 293 293 292 291 291 291 291 291 291 291 291 291 291 291 291 292 292 292 292 292 292 291 291 290 290 290 291 290 291 291 292 292 293 293 293 294 295 296 297 298 299 298 298 298 297 297 297 297 297 296 297 297 296 297 298 300 309 317 316 315 316 314 314 314 313 313 313 313 313 312 311 311 312 312 311 311 311 311
294 295 295 295 293 292 293 293 293 292 293 294 294 294 294 295 294 293 293 293 292 292 291 291 291 290 290 290 290 291 291 291 291 291 291 291 292 292 291 290 290 290 290 289 289 288 287 287 287 288 290 291 292 293 294 295 296 296 297 298 298 298 298 297 297 297 296 297 296 296 296 296 297 297 298 304 314 316 315 315 314 313 313 312 312 313 312 312 312 311 311 311 310 310 311 311 310
294 294 294 294 293 293 292 292 292 292 292 293 293 293 295 295 293 292 293 293 292 291 291 290 290 290 290 290 290 290 290 291 291 291 291 291 291 291 291 290 289 289 288 286 285 285 284 284 285 286 287 289 291 293 293 294 295 296 297 298 298 298 298 298 297 297 296 296 295 295 296 296 296 296 297 300 310 317 315 314 314 313 313 312 312 312 311 311 311 310 311 310 310 310 310 310 309
294 294 294 294 293 292 292 292 292 292 292 292 291 292 293 293 293 292 292 292 292 291 291 290 290 290 290 290 290 290 290 291 291 291 291 291 290 290 290 289 288 287 285 284 282 282 282 283 284 285 286 287 290 292 293 293 294 295 296 297 297 297 298 298 297 297 296 295 295 295 295 295 295 295 296 298 305 315 316 314 315 314 313 312 311 310 310 310 310 310 310 310 309 309 309 308 309
Wind_Speed
4 2 1 4 5 5 3 2 1 1 2 1 2 2 1 1 3 3 2 1 2 0 1 1 3 4 1 3 3 5 5 7 7 6 4 2 1 5 5 6 9 11 13 18 20 20 20 21 21 20 19 18 18 18 18 18 19 18 17 16 16 17 17 15 15 16 16 16 14 13 13 13 13 12 12 12 12 13 13 13 14 15 16 17 19 20 20 20 19 19 19 19 20 20 22 24 24
4 1 3 6 5 3 1 1 2 1 1 2 3 2 3 0 2 4 5 4 4 4 2 2 3 2 3 4 4 6 7 10 12 8 4 6 11 12 11 8 9 12 14 18 21 21 21 21 22 21 20 20 19 19 18 19 20 19 16 17 18 18 18 17 16 16 16 15 14 14 13 14 14 14 14 13 13 14 13 12 12 14 14 16 18 19 19 19 18 19 19 19 21 22 23 24 25
2 2 6 6 4 1 1 1 2 1 1 2 3 2 1 2 3 6 8 7 5 3 2 1 3 4 5 6 5 7 6 6 11 9 5 10 11 9 10 10 10 12 13 17 21 22 23 23 23 23 23 22 20 20 20 20 20 19 18 17 18 18 18 17 16 15 15 14 14 14 14 14 15 15 15 15 14 15 15 13 13 14 13 14 17 19 19 19 19 19 20 21 21 23 26 26 27
1 3 6 4 2 1 1 1 1 2 2 2 1 3 1 4 6 8 6 4 2 1 2 2 3 2 6 9 4 5 8 4 6 7 5 7 6 6 8 10 13 13 14 16 21 23 24 25 25 25 25 25 22 20 21 22 21 20 19 18 18 19 18 17 16 15 15 15 15 15 15 15 15 15 16 16 15 15 15 15 15 15 15 15 16 20 20 19 20 20 21 22 21 25 28 27 28
3 4 4 4 2 0 1 0 1 2 3 2 2 3 3 5 7 9 6 5 3 3 3 3 3 1 3 6 3 4 5 4 3 5 6 7 9 10 8 10 15 16 15 16 20 23 24 26 26 27 28 27 25 22 21 22 22 20 20 20 20 20 19 17 17 16 16 16 15 15 16 17 17 17 18 18 18 17 16 17 17 16 17 16 16 20 21 21 20 21 22 22 23 27 30 28 30
4 4 3 1 0 0 1 0 1 2 3 1 3 4 6 6 7 10 9 7 1 3 2 3 4 2 4 3 4 6 5 4 3 4 6 8 11 11 10 11 16 19 18 17 19 21 24 26 26 28 28 28 28 25 23 23 23 21 20 21 22 22 21 19 18 17 17 16 16 16 17 19 18 19 19 19 19 19 18 18 18 17 18 18 18 19 22 22 20 22 22 23 26 30 32 30 30
3 2 2 2 2 1 1 2 2 2 3 0 3 5 7 7 5 8 9 6 2 2 1 2 3 5 7 1 3 7 10 10 6 9 11 13 15 13 12 12 15 20 21 20 19 21 24 25 25 26 27 28 28 27 25 24 23 22 21 22 23 24 23 21 20 19 18 17 18 18 19 20 19 20 20 20 19 20 20 19 18 18 19 18 20 20 22 23 21 23 22 23 28 32 32 32 30
1 2 1 1 1 0 1 1 1 1 1 1 3 4 7 7 4 6 7 4 2 1 2 3 1 6 5 1 4 4 9 14 13 18 21 21 23 19 16 14 16 19 22 23 21 21 23 24 24 24 25 27 28 28 26 25 24 23 22 22 22 24 25 24 23 21 20 19 20 20 20 20 20 21 21 21 20 20 20 19 18 18 19 19 19 20 22 24 22 23 21 24 28 31 33 33 30
1 1 1 2 1 0 0 0 0 0 1 2 3 5 5 5 3 4 5 4 4 4 3 2 3 6 7 3 8 4 3 11 14 18 19 21 23 23 23 19 18 19 22 24 23 22 22 24 24 24 25 25 27 28 27 26 25 24 24 23 22 23 25 25 25 23 21 22 22 21 21 20 20 21 21 22 21 19 18 19 19 18 18 18 19 20 23 25 23 22 22 24 29 33 36 34 30
1 1 1 1 1 1 0 0 1 0 1 1 4 6 4 2 2 4 5 6 4 4 2 1 4 8 10 9 9 5 4 9 12 16 17 17 18 19 21 21 21 21 22 24 24 23 22 23 25 25 25 26 28 28 28 27 27 26 23 23 23 23 24 26 26 25 24 24 24 23 22 20 21 21 21 21 20 18 18 17 18 17 17 17 18 21 24 25 23 22 23 25 30 36 37 34 32
2 1 1 1 0 2 1 2 2 1 2 2 3 3 2 1 3 4 4 6 5 6 3 2 4 7 9 10 6 3 6 10 12 14 15 15 16 16 18 19 20 21 23 24 24 23 23 23 24 26 27 27 28 29 30 29 29 28 25 24 24 24 23 25 25 25 26 25 25 24 23 21 21 21 21 20 20 19 18 17 17 18 16 17 18 21 24 26 23 22 24 26 30 36 36 35 35
3 1 1 2 1 2 2 3 4 4 3 1 1 3 1 2 3 5 4 7 7 8 5 5 2 3 7 8 4 3 4 6 8 10 13 13 15 16 17 17 19 20 23 24 24 24 23 23 23 26 28 29 29 29 29 30 29 29 28 26 25 25 24 24 23 23 25 25 25 25 23 22 21 21 21 20 20 19 18 17 18 18 17 17 19 21 23 25 23 21 24 27 31 36 37 35 34
2 1 2 1 1 1 1 2 3 4 2 2 3 3 1 2 3 8 8 8 7 9 5 3 1 2 8 8 6 7 3 2 9 13 14 15 16 18 18 18 19 20 22 23 25 25 25 24 23 24 26 28 29 30 30 30 30 30 30 28 27 26 26 25 22 23 25 25 25 24 23 21 20 21 22 21 20 18 18 18 18 18 17 17 19 22 22 24 24 21 24 30 34 37 38 36 33
1 1 2 0 1 1 1 3 2 3 2 4 2 2 1 3 3 5 7 11 8 5 4 0 2 4 6 5 6 6 3 6 15 19 20 20 18 19 19 19 20 21 22 23 25 26 26 26 25 24 24 25 28 30 30 30 30 31 31 30 28 27 27 26 23 24 25 25 25 23 22 21 20 20 22 22 20 18 18 17 18 17 16 16 18 21 21 22 23 22 26 31 35 37 36 34 34
1 1 1 1 2 1 2 2 2 2 2 4 2 2 2 3 1 1 5 11 8 2 2 1 2 3 4 4 8 8 7 14 23 25 26 25 22 20 20 20 21 21 23 24 26 27 28 28 27 27 26 25 26 28 29 30 31 32 32 31 28 27 28 27 25 25 25 24 24 23 21 20 20 21 22 21 20 18 17 17 17 17 16 15 17 20 20 22 22 24 29 32 34 35 34 34 36
1 1 1 1 1 1 1 0 1 2 3 4 2 1 4 1 2 3 2 6 8 2 1 3 3 4 8 8 12 12 15 24 28 30 29 26 23 21 19 20 22 23 25 26 27 28 29 30 30 29 28 27 27 27 27 26 26 30 32 31 29 27 27 29 27 26 25 24 23 23 21 20 20 21 22 21 19 17 16 16 17 17 15 14 18 20 21 23 22 25 31 34 36 34 33 36 37
2 2 2 1 1 0 1 1 0 3 6 5 2 1 8 5 2 2 2 5 10 6 4 6 5 6 10 12 15 18 23 28 29 29 25 20 17 15 15 16 18 21 25 27 28 29 30 31 32 31 30 29 27 24 23 20 21 27 31 30 30 28 28 29 28 27 26 24 24 23 20 20 21 23 22 21 18 17 16 17 16 16 15 15 18 20 22 25 25 28 31 33 38 37 34 35 35
2 2 1 0 1 1 2 1 2 4 8 10 6 2 6 8 4 4 5 7 8 9 8 7 7 9 13 16 16 17 21 24 24 22 18 16 15 14 16 15 15 17 21 25 28 30 31 32 32 31 31 30 27 23 20 20 21 24 28 29 30 30 29 29 28 27 26 25 24 23 22 21 22 21 19 19 17 16 17 17 17 16 15 16 18 20 23 26 27 30 35 37 37 36 33 34 35
2 1 2 0 2 2 1 1 2 3 8 14 13 4 3 7 6 5 7 10 9 9 8 6 7 9 9 10 9 11 15 17 16 15 15 16 17 18 19 21 20 20 20 21 22 25 28 31 30 29 31 31 28 26 21 21 22 22 24 25 28 29 30 31 29 27 27 25 24 25 22 21 23 20 16 18 17 16 18 18 18 16 15 17 18 20 24 28 33 35 38 39 36 35 35 36 36
1 1 2 2 2 0 1 1 0 2 6 13 14 6 6 5 3 3 7 13 11 7 10 11 14 17 18 16 13 14 15 16 14 13 16 18 20 20 20 22 22 23 23 21 21 21 23 28 29 27 28 28 27 27 22 20 21 21 21 22 26 29 28 30 29 27 28 26 26 26 21 21 25 20 17 20 19 17 17 18 18 16 15 15 16 18 22 26 34 42 43 39 36 36 37 36 35
1 2 2 4 2 1 3 2 2 1 3 10 14 9 8 4 1 3 6 10 8 9 12 13 14 15 16 18 18 19 19 20 21 22 22 22 23 23 22 22 22 22 22 22 23 22 21 22 24 24 23 23 23 24 23 21 21 20 21 22 24 27 26 29 29 27 29 29 28 26 21 24 27 20 16 19 17 15 16 16 17 16 15 14 12 14 18 15 18 34 43 40 38 38 39 38 37
1 2 2 3 2 2 4 2 0 1 2 8 13 9 7 5 2 4 5 6 7 10 13 13 13 12 12 12 12 16 18 20 23 26 25 25 26 26 25 24 23 23 21 21 23 24 23 21 21 22 21 21 22 22 22 22 21 22 23 22 23 25 24 27 28 27 29 29 29 27 25 26 27 22 16 15 14 15 14 15 16 17 18 16 14 16 19 16 15 29 38 38 36 35 38 38 37
2 2 1 1 3 1 2 3 2 2 4 8 10 6 5 8 5 2 5 7 7 10 12 11 10 9 9 9 9 14 17 19 22 24 24 25 26 27 26 25 24 23 22 23 24 24 24 23 22 21 21 22 23 23 23 22 22 24 25 24 25 26 25 26 28 29 27 27 29 30 28 26 25 23 18 14 14 16 14 16 18 18 20 19 17 18 20 21 22 29 33 34 34 33 36 36 35
3 2 0 2 4 2 2 2 2 4 7 9 8 7 7 9 4 3 6 6 6 8 8 7 9 10 10 12 14 16 18 20 22 24 25 24 25 25 25 24 25 25 24 26 26 25 25 25 24 21 22 23 23 22 22 22 23 24 25 26 28 29 29 26 28 31 27 26 31 31 30 25 23 25 22 16 15 17 15 18 22 21 22 21 19 20 22 25 27 32 35 35 35 34 35 35 35
4 3 3 1 3 2 3 3 5 6 7 6 5 10 9 3 2 3 3 6 7 4 5 7 10 11 13 16 17 17 18 21 23 25 25 23 24 26 27 26 26 27 27 28 27 27 27 27 25 23 23 23 23 22 21 22 24 25 26 28 30 33 30 26 27 30 28 27 30 33 32 28 24 26 27 20 15 17 15 17 24 25 26 25 22 21 24 30 31 33 37 37 37 36 35 35 35
2 5 5 6 5 2 3 3 5 4 3 2 3 12 8 5 1 4 4 8 5 4 8 11 11 13 15 15 17 18 18 20 22 23 23 23 25 27 27 27 27 27 26 27 27 28 29 28 27 24 23 23 23 23 22 22 23 25 28 29 31 33 30 27 28 30 29 27 30 35 35 31 26 27 28 23 17 17 16 15 22 27 29 29 27 25 25 30 33 35 38 38 39 38 36 35 34
1 7 8 11 9 3 3 4 4 3 2 3 3 14 10 3 3 2 7 6 7 10 13 14 13 15 16 16 16 17 18 20 21 22 24 25 25 26 26 25 27 27 25 26 27 28 29 29 27 25 23 23 23 23 23 23 24 24 28 30 32 33 32 30 30 32 31 27 29 36 38 35 30 27 28 25 19 18 17 15 21 26 28 30 30 30 29 27 30 36 39 38 38 39 38 35 34
2 6 9 12 7 3 5 3 2 3 3 4 5 13 9 2 1 5 8 6 10 12 13 15 15 15 15 16 15 15 17 19 21 23 24 24 23 24 25 25 26 26 25 25 26 28 31 32 29 26 23 21 22 22 23 24 25 25 26 31 33 34 34 33 31 31 29 25 27 31 37 38 33 29 30 28 21 20 19 17 21 24 26 32 32 32 33 28 28 34 37 37 36 37 38 36 34
2 3 6 11 6 5 7 5 2 2 3 5 6 8 6 2 2 7 8 7 11 9 14 14 14 13 13 14 13 13 16 19 22 23 23 23 23 25 27 27 27 25 24 25 27 31 32 33 33 28 24 21 20 21 23 24 26 27 26 29 34 34 33 33 32 29 25 24 25 26 33 40 36 30 31 32 23 22 22 17 21 23 23 30 32 32 33 30 30 33 34 35 36 37 39 38 36
1 0 2 7 7 2 6 6 4 2 6 5 3 5 4 3 3 6 4 6 9 8 14 12 11 12 12 12 11 12 15 19 20 22 23 24 24 25 26 28 30 27 25 25 29 33 32 31 33 31 25 22 20 19 21 24 25 27 26 28 32 34 33 33 33 31 27 23 24 25 30 38 40 32 31 33 26 23 24 19 19 22 22 26 29 32 33 32 32 33 34 36 37 39 40 41 39
2 1 2 2 4 5 3 6 6 5 5 1 7 5 5 8 5 5 2 4 6 11 14 12 11 11 10 11 12 12 14 17 19 22 25 25 25 26 26 28 30 29 28 27 29 33 33 33 34 31 28 24 21 19 20 22 25 27 27 28 31 34 34 32 33 34 29 24 24 27 28 32 38 36 32 33 28 23 24 21 20 24 25 24 27 29 28 30 33 34 35 37 38 38 39 41 41
1 2 2 2 3 8 9 5 7 8 2 4 7 3 5 10 7 8 9 4 9 14 13 12 12 11 11 10 11 11 13 17 20 23 26 26 26 27 27 28 29 29 29 28 29 31 33 36 36 34 33 29 24 21 20 21 23 25 27 31 33 35 34 31 32 34 33 28 26 29 31 27 33 41 37 34 29 23 24 22 22 30 31 25 29 30 24 26 32 33 32 35 39 38 35 37 39
2 3 5 5 5 9 9 2 7 9 8 4 2 3 6 9 9 13 11 9 16 14 12 12 11 11 11 10 10 11 12 15 19 23 26 26 25 27 27 27 28 28 27 27 29 30 30 33 35 35 35 32 28 25 23 22 23 25 27 31 35 34 35 34 33 32 32 32 28 28 31 27 33 43 41 37 30 22 25 24 22 33 38 33 34 37 29 24 30 34 32 33 39 40 37 35 35
3 4 5 6 7 9 9 2 4 10 9 5 2 1 6 10 11 14 8 14 17 13 12 11 11 10 10 10 10 11 12 14 15 20 24 23 24 26 26 27 28 28 26 27 28 28 28 29 31 33 33 33 32 30 26 24 25 26 26 26 31 34 35 36 37 36 33 31 29 27 28 28 35 44 43 38 28 22 26 26 23 32 41 38 37 41 37 28 26 33 35 33 37 40 39 37 35
6 6 6 7 6 7 11 8 6 11 11 9 6 1 5 11 12 12 10 17 16 13 11 10 11 11 10 10 10 11 13 14 14 18 21 21 22 24 25 27 29 29 29 29 28 28 28 28 28 30 33 34 34 32 30 27 25 26 27 25 27 34 36 35 37 38 37 34 33 31 28 28 34 45 45 35 25 23 28 28 25 31 40 40 38 39 40 35 29 33 37 35 33 35 38 40 40
8 7 6 8 9 7 10 11 7 12 14 10 7 7 8 10 13 10 14 17 14 13 10 9 10 10 10 10 10 10 12 12 13 17 19 19 21 22 23 24 27 29 29 29 29 29 29 29 28 29 31 34 33 32 32 30 27 26 26 26 24 28 33 36 36 37 37 34 35 36 34 33 34 42 43 33 26 24 28 30 28 31 37 41 41 38 39 39 36 37 39 36 32 29 34 41 42
6 7 6 8 10 7 8 11 6 11 14 9 10 14 8 10 14 9 15 14 14 12 11 10 9 8 8 8 9 9 10 10 12 16 17 18 19 21 22 22 25 28 30 30 30 31 31 29 29 29 30 32 32 31 32 32 30 28 25 24 25 26 28 32 36 38 38 37 39 39 38 37 34 38 38 30 27 26 28 31 32 33 35 40 44 41 39 38 38 39 38 37 35 30 31 36 41
5 6 7 8 8 9 11 9 5 11 11 10 16 17 8 10 12 10 15 12 13 11 11 10 10 9 7 8 9 9 8 8 11 15 17 19 19 21 21 22 24 26 28 30 30 31 32 29 28 28 28 29 30 29 30 32 32 31 30 27 27 30 29 29 32 35 37 39 42 43 44 40 31 33 39 35 31 31 31 30 34 37 34 38 43 41 40 39 38 38 37 36 35 33 32 36 43
5 5 6 7 6 10 9 2 4 10 8 10 17 15 9 9 6 13 13 12 12 9 10 9 9 10 9 9 9 9 10 11 13 15 18 21 21 20 21 21 22 23 24 25 27 29 29 29 29 28 27 26 26 28 30 31 33 36 34 30 27 28 31 31 32 33 34 37 40 43 46 46 37 33 38 39 36 35 33 30 34 39 36 39 41 39 42 42 39 38 39 39 34 30 31 40 47
3 4 5 6 7 9 5 1 9 12 7 8 14 12 8 2 8 13 10 10 10 6 7 8 8 10 10 8 8 10 12 13 14 15 17 19 20 20 20 20 20 21 22 23 25 25 25 27 29 29 27 25 24 26 29 30 34 38 38 33 28 25 28 32 34 34 33 36 39 41 42 45 45 39 35 37 37 36 35 33 33 36 38 39 37 39 45 45 43 42 41 40 37 30 26 35 42
1 2 3 5 7 7 7 10 16 13 4 3 11 12 3 5 6 7 8 8 8 6 7 10 10 9 9 8 9 10 11 13 14 16 16 17 20 22 22 22 22 21 21 23 24 24 24 25 27 28 26 24 24 25 27 29 31 34 36 36 32 26 25 26 29 31 30 32 37 40 41 41 44 43 37 37 38 37 35 33 33 34 37 38 36 40 47 47 46 46 43 40 40 36 31 32 31
3 2 2 5 7 8 11 14 15 12 5 5 11 11 3 3 3 7 7 5 6 7 10 12 11 10 9 10 11 11 12 12 13 16 17 19 22 24 25 25 23 23 23 23 24 25 25 25 26 27 26 24 25 24 25 26 26 27 29 31 29 25 23 22 24 28 29 31 34 37 40 40 41 44 42 40 39 38 35 32 32 35 40 41 37 39 46 47 45 47 47 43 40 39 38 34 28
4 1 2 4 6 9 12 13 10 8 9 5 8 6 8 5 2 9 8 6 6 7 9 11 10 10 10 11 11 13 14 14 16 19 21 23 25 25 26 26 24 24 25 24 24 26 27 27 25 26 26 24 24 23 22 22 22 23 25 27 27 26 23 24 27 31 32 33 34 34 37 40 42 46 45 42 40 38 37 35 34 38 42 40 37 37 43 49 49 49 51 47 42 40 39 35 29
2 1 2 4 7 11 12 11 7 7 10 6 2 5 8 7 2 9 8 5 5 8 11 12 11 12 13 13 14 16 18 18 19 21 23 25 27 28 28 29 28 27 26 24 25 26 28 29 28 26 27 26 25 23 21 19 19 20 22 23 26 27 27 27 30 33 34 34 33 32 34 36 39 44 45 42 40 37 37 37 34 39 42 40 41 39 38 45 48 46 48 47 43 41 40 38 34
1 1 3 5 6 10 10 9 9 7 7 6 4 5 6 6 2 5 6 4 6 10 12 13 13 14 14 15 18 20 20 20 21 21 23 25 29 32 33 32 32 30 26 23 25 26 27 29 30 28 28 28 28 26 23 20 18 18 18 19 22 26 30 31 31 31 33 33 33 33 33 33 34 41 43 40 41 39 38 39 36 38 41 41 44 40 33 40 47 45 46 45 43 42 41 40 38
2 2 4 5 6 8 7 7 8 6 5 8 5 2 4 6 4 2 2 4 6 9 10 11 12 13 15 17 20 21 20 19 19 21 23 28 32 35 36 36 36 35 31 27 26 26 26 29 30 30 30 29 29 28 24 22 20 18 17 18 20 23 29 32 32 31 32 32 32 33 34 33 34 40 41 38 40 41 40 41 38 38 40 40 44 41 35 41 47 46 47 47 46 44 41 40 40
4 3 3 5 6 6 6 5 4 4 4 5 2 3 2 6 3 1 1 4 5 8 9 10 12 15 17 19 19 20 19 17 19 20 23 30 35 36 37 37 38 39 37 35 32 29 28 29 30 30 31 30 30 30 26 22 20 18 17 17 18 19 25 29 30 30 31 33 33 32 32 34 34 38 40 38 40 42 41 43 41 40 40 40 46 46 40 45 49 47 47 47 47 46 43 41 39
3 2 6 7 5 4 5 4 1 2 3 3 6 3 3 7 3 3 5 4 6 7 10 12 15 18 19 19 19 19 18 18 20 19 20 26 30 34 37 37 39 39 38 38 37 34 32 33 33 32 33 33 32 32 30 25 21 18 17 16 16 17 21 24 25 27 29 31 31 32 32 31 34 37 39 39 40 40 40 43 42 42 40 39 47 44 38 49 55 48 47 46 46 47 45 43 40
2 4 5 5 5 4 4 4 2 5 4 6 5 4 5 10 8 3 7 5 6 7 10 12 15 18 19 19 19 17 16 19 20 18 19 21 23 28 35 37 39 39 38 38 39 38 36 36 36 34 34 35 33 32 32 30 24 20 18 17 16 16 19 22 24 26 27 29 29 30 33 30 30 36 38 38 41 41 41 42 41 42 41 40 46 39 31 47 57 50 48 47 46 47 47 47 45
4 3 2 2 4 6 6 6 5 6 4 4 2 3 5 10 6 6 7 5 6 8 11 10 12 15 17 18 18 17 17 19 18 18 20 20 23 30 35 38 39 39 41 41 41 42 40 39 39 37 36 36 34 32 33 32 27 23 20 18 16 16 17 21 24 25 26 29 30 30 31 32 29 31 39 40 40 42 42 43 43 43 42 44 48 42 32 43 55 52 50 50 50 49 48 49 48
3 3 0 2 1 4 6 5 5 8 9 6 4 3 4 5 1 9 5 2 6 10 11 8 11 14 16 17 17 17 18 19 18 19 21 22 28 35 37 39 41 41 44 43 42 43 43 43 43 41 39 38 36 33 33 33 30 25 21 19 17 16 16 19 22 24 26 29 30 31 33 33 34 31 36 42 41 43 42 41 42 41 43 49 51 47 41 44 52 52 50 51 52 50 48 48 48
3 2 2 3 1 4 6 3 2 5 10 9 4 4 3 1 6 9 2 5 10 13 11 11 15 17 17 17 17 17 18 19 19 20 22 25 31 37 39 41 42 43 45 45 44 44 44 45 45 43 41 39 38 35 33 34 33 28 23 21 20 17 16 17 19 23 26 28 28 30 33 34 35 38 33 39 42 46 46 42 43 41 44 52 52 50 48 46 49 51 50 49 50 50 49 48 47
3 2 2 1 2 2 5 4 1 2 8 7 4 6 7 2 6 7 2 10 14 13 13 15 19 20 20 18 17 18 19 21 22 23 24 25 30 36 41 43 43 43 46 47 46 46 45 43 43 43 42 39 38 36 34 34 34 31 26 23 21 19 18 17 18 22 23 26 29 27 30 34 34 39 36 35 43 45 46 46 46 45 46 49 49 48 48 46 47 48 49 49 49 50 51 49 48
1 2 1 3 3 2 1 2 2 4 8 6 6 10 9 6 2 2 5 13 15 15 17 20 21 22 22 20 20 21 22 24 26 26 26 26 30 37 42 44 45 45 46 47 47 45 43 41 40 42 42 41 39 37 36 34 33 32 28 25 24 21 20 20 19 20 20 23 27 25 26 34 34 37 41 33 42 45 44 47 46 45 45 46 46 47 47 48 47 44 46 51 51 49 49 48 48
2 2 1 1 3 3 3 1 3 6 8 7 8 11 9 7 3 2 8 14 15 17 20 22 24 23 22 22 23 24 25 25 25 25 25 25 29 39 45 46 46 49 49 46 42 39 38 39 41 42 42 41 39 37 36 34 32 32 29 27 26 24 22 22 22 20 19 20 23 25 26 32 34 35 41 35 37 45 43 46 46 44 44 44 47 49 47 48 47 43 45 49 48 48 46 45 45
2 0 1 0 2 2 2 1 1 5 7 7 8 10 6 3 1 4 11 13 14 18 20 21 23 23 22 21 22 23 24 23 23 23 26 27 30 40 48 46 46 48 46 40 37 38 41 43 45 46 46 43 40 37 35 34 32 32 31 29 27 25 24 23 24 23 22 22 24 27 26 29 32 32 38 39 35 46 45 45 46 44 44 43 46 49 48 48 47 44 46 46 45 46 45 42 43
3 4 4 3 1 2 1 1 2 3 6 6 7 10 6 2 3 7 11 11 12 18 21 20 21 23 23 22 23 24 24 24 24 23 26 29 32 40 46 45 43 39 35 36 39 41 41 41 41 42 42 42 40 37 35 35 33 31 31 31 29 28 25 24 24 25 25 26 27 28 26 27 33 34 35 40 33 43 47 47 48 46 46 46 46 48 48 48 48 45 45 46 45 46 45 42 42
5 6 5 4 4 3 3 4 3 2 4 4 5 11 10 2 1 5 6 7 12 18 21 20 21 23 24 23 25 26 25 25 26 27 26 25 28 36 42 43 41 36 33 37 40 39 37 35 35 34 34 35 36 36 36 35 34 33 32 31 31 29 26 24 24 25 26 27 27 28 28 28 34 36 34 38 36 39 49 48 49 49 48 48 47 47 48 47 48 47 45 44 45 46 45 43 43
Wind_Direction
318 327 133 156 150 162 171 216 224 152 247 75 53 353 89 57 307 290 254 219 293 165 204 284 145 148 196 312 298 305 291 262 271 272 301 27 244 287 273 230 210 219 220 210 210 212 212 212 211 207 204 207 213 218 219 218 216 215 221 222 221 223 222 223 227 231 235 236 229 227 234 237 239 237 234 240 239 240 247 251 252 257 256 250 245 243 241 237 234 231 229 232 234 222 204 195 191
305 285 133 139 152 196 156 241 272 72 249 86 73 1 45 123 258 327 354 351 353 42 10 262 197 231 307 326 305 290 265 232 249 269 293 293 287 294 282 251 221 219 216 213 211 210 213 215 215 212 211 212 214 217 217 217 217 220 226 227 226 227 230 232 234 237 236 232 229 229 233 234 235 231 231 234 233 235 241 248 253 258 260 255 247 244 243 238 233 230 229 231 228 216 201 192 187
312 144 142 146 152 232 156 217 298 21 2 56 64 77 53 313 332 350 356 354 5 27 335 224 236 254 247 261 260 273 275 232 245 260 274 278 287 300 287 258 230 219 215 214 212 211 213 216 218 215 215 216 217 219 217 218 220 223 228 229 231 232 235 237 237 235 232 228 228 231 231 233 232 229 229 228 230 233 236 242 248 252 255 257 251 245 245 240 233 230 230 230 223 206 193 186 182
359 136 155 183 191 214 222 223 357 341 21 35 28 84 51 323 339 332 345 349 339 279 250 208 230 208 233 265 286 277 275 275 248 247 274 277 270 291 286 249 228 216 217 215 212 215 216 218 219 217 217 217 218 219 219 220 222 226 229 230 235 237 236 236 236 232 228 225 226 231 231 231 230 226 225 226 228 232 237 239 240 243 245 251 252 246 243 240 234 231 233 229 220 203 191 185 180
94 115 166 225 252 72 276 106 51 322 28 17 335 47 3 330 326 320 326 323 298 229 221 221 254 149 235 273 295 282 284 306 270 234 263 285 275 281 280 245 228 219 221 217 214 217 219 222 220 218 219 218 217 219 219 220 223 226 227 230 236 237 236 232 234 235 229 226 226 230 229 228 228 225 225 225 223 225 235 238 236 237 241 246 249 246 241 238 233 234 234 222 213 201 189 183 180
109 97 123 154 65 18 262 111 39 22 51 356 327 7 356 344 327 321 317 321 325 203 220 234 286 301 260 245 219 247 283 316 329 259 252 283 289 287 282 254 233 226 226 223 220 221 223 226 223 220 222 220 218 218 219 219 223 226 226 229 233 235 236 232 233 235 230 227 228 228 228 231 232 231 229 227 226 226 229 235 238 236 240 243 245 244 240 236 231 236 233 215 207 194 186 185 180
168 159 110 106 115 237 277 29 6 39 78 238 332 347 348 353 336 320 318 335 80 160 204 245 312 294 275 268 240 239 243 256 281 283 274 283 292 294 289 269 244 232 230 229 227 226 227 229 226 223 225 224 221 220 220 220 223 225 227 231 232 232 234 234 234 235 231 229 231 231 230 234 237 237 236 232 232 231 229 233 239 241 241 242 243 242 239 232 229 236 228 211 204 189 185 183 174
228 247 206 243 146 83 299 24 346 33 87 221 304 302 320 341 328 305 315 331 321 271 215 235 251 271 285 106 269 248 232 255 268 279 282 283 285 287 287 279 262 243 235 234 232 230 228 230 228 226 227 226 225 224 223 223 225 225 228 233 234 231 232 235 236 237 235 234 235 234 235 236 239 241 240 236 234 232 232 235 239 242 243 243 241 240 237 228 227 235 220 202 196 185 181 180 175
321 292 236 246 172 81 198 257 10 21 241 229 269 260 284 317 290 277 297 300 294 290 247 234 202 258 305 295 277 291 242 273 279 286 289 287 288 286 283 278 270 257 246 241 236 234 230 228 227 226 226 226 227 227 227 228 229 230 230 233 235 233 232 234 237 239 238 238 239 239 241 241 243 245 243 238 236 234 234 237 240 243 244 245 241 236 231 223 225 230 216 197 188 183 180 179 178
280 359 266 210 193 278 182 136 67 174 260 283 278 271 277 290 256 247 274 304 312 294 298 116 221 249 293 300 291 299 287 298 298 299 301 295 295 292 286 277 270 264 259 251 242 238 232 229 226 225 226 226 227 228 230 231 233 235 236 236 237 236 233 236 238 240 239 240 242 244 246 246 247 247 246 240 237 236 234 238 242 244 246 247 240 232 225 218 223 224 210 197 185 182 181 177 175
255 53 311 236 262 321 7 333 339 342 327 310 265 267 300 213 236 241 241 293 306 282 259 158 249 262 282 292 287 277 283 301 304 305 312 304 297 296 291 280 271 265 263 258 250 243 238 234 227 226 226 226 228 228 230 232 234 237 241 240 241 239 236 238 238 238 240 241 243 246 248 249 250 248 246 242 239 239 235 236 243 246 247 245 237 229 222 215 221 223 208 198 185 179 177 174 174
276 33 260 264 20 349 5 318 320 326 315 317 103 104 25 182 229 309 308 302 307 291 268 196 282 334 290 294 292 285 286 304 320 322 325 318 305 298 292 282 273 264 262 261 255 249 244 240 234 230 228 229 229 229 230 233 234 237 242 243 243 240 236 238 237 237 238 240 243 247 250 250 250 246 244 243 242 241 236 237 243 248 249 244 236 228 223 216 220 222 206 197 187 180 176 175 175
311 345 267 280 46 326 17 297 313 318 312 91 51 85 194 224 292 330 326 308 291 291 303 202 263 323 280 295 297 296 311 360 341 334 331 323 312 302 292 282 275 266 261 259 257 253 249 246 242 238 234 232 231 231 231 232 235 237 241 244 243 241 235 236 237 237 238 239 242 246 249 251 252 246 243 245 244 242 240 242 244 249 250 246 238 229 224 220 222 219 204 195 187 181 179 178 175
315 283 293 38 104 271 226 279 326 323 9 81 50 108 193 274 323 337 317 311 302 300 352 80 266 270 270 295 301 319 19 342 329 327 327 324 314 303 293 284 276 270 263 258 255 253 252 251 249 246 242 239 235 234 234 234 235 235 239 241 242 242 236 235 237 238 240 240 242 244 246 251 254 246 243 246 247 245 243 244 244 246 248 246 238 230 224 221 223 214 201 195 187 183 183 179 173
315 213 297 135 154 224 196 282 358 314 11 56 52 132 227 256 262 282 298 307 318 13 359 268 200 269 323 330 306 335 350 321 322 322 322 320 315 306 295 287 279 272 266 260 256 253 251 253 253 251 248 244 241 237 235 235 235 234 237 238 239 241 236 232 236 239 241 241 242 243 245 249 248 243 241 243 244 242 240 239 241 244 245 244 235 229 223 219 219 207 198 194 188 187 188 181 173
322 234 250 181 178 239 159 206 324 278 351 26 105 157 295 265 168 278 314 300 300 340 208 258 183 258 306 295 292 315 319 314 317 319 320 318 315 309 299 292 286 279 272 266 260 256 253 252 252 253 252 248 244 240 237 235 236 235 235 236 235 238 234 231 234 238 241 243 244 242 243 246 243 238 237 238 237 233 231 231 236 244 245 244 236 229 223 220 217 206 201 197 189 183 180 175 168
294 245 242 220 177 201 148 184 350 330 335 343 132 125 323 336 118 282 287 250 271 284 262 257 231 241 270 276 289 302 309 315 320 322 321 318 315 310 303 296 292 288 283 278 269 262 258 255 253 252 252 250 245 241 239 237 237 236 236 237 235 235 234 232 234 237 241 244 244 242 243 244 239 235 235 235 231 226 223 223 231 242 245 245 239 231 223 219 213 204 199 191 181 174 169 164 160
279 231 257 260 133 86 133 144 35 328 324 325 323 25 334 328 360 340 293 253 254 283 288 263 246 239 246 260 283 305 315 321 325 327 324 320 320 319 320 318 310 302 296 291 283 274 266 261 257 253 252 250 245 240 239 239 237 237 238 237 236 235 233 232 233 236 238 241 242 241 242 242 236 232 232 231 226 222 221 221 227 236 243 246 245 235 221 215 207 193 183 174 169 166 160 155 156
280 228 285 58 98 64 82 46 54 322 322 317 317 359 336 322 350 344 307 303 297 298 325 345 331 330 304 282 294 322 324 321 325 331 330 330 333 335 334 332 329 324 318 309 299 289 278 271 266 258 255 251 246 241 238 239 237 235 235 236 234 234 233 231 232 233 235 236 237 238 239 238 234 229 226 226 222 219 221 221 225 233 241 243 242 229 216 214 204 183 171 166 162 162 157 153 156
285 252 286 70 90 28 168 247 297 316 315 306 310 332 320 333 16 310 298 306 313 342 7 7 353 354 346 336 342 341 334 334 346 354 352 352 351 349 343 339 336 331 328 322 313 302 290 283 276 267 261 255 248 243 241 239 238 234 231 230 231 231 231 230 228 230 233 233 234 235 234 234 233 228 225 226 222 219 221 218 220 224 228 230 233 221 209 211 201 179 169 165 159 158 156 155 157
150 244 314 76 119 299 133 205 298 289 284 294 300 303 309 347 102 267 292 307 335 14 11 6 356 350 343 337 340 344 348 355 7 14 11 9 5 1 355 349 343 336 331 325 320 314 303 292 282 274 267 259 252 247 244 241 238 237 232 226 225 227 228 227 225 227 231 232 232 232 232 235 234 227 225 226 219 217 219 212 211 210 206 209 207 196 186 191 179 158 155 155 154 156 155 158 161
215 222 312 90 164 329 105 140 7 155 269 285 289 300 321 326 264 263 290 309 345 2 3 6 355 345 335 326 333 348 359 8 17 18 16 14 11 7 1 355 351 347 341 334 329 324 316 304 291 280 271 263 256 251 249 247 241 237 235 229 223 224 226 225 224 225 228 230 231 230 231 235 233 226 220 218 211 211 214 206 206 202 195 193 181 170 167 165 142 133 140 148 153 155 156 160 162
270 203 237 158 172 302 106 136 152 200 284 278 289 324 329 297 292 325 291 280 309 346 6 6 345 335 324 325 355 11 16 22 23 19 16 15 11 6 2 358 355 351 347 343 338 332 325 315 304 289 277 267 260 255 252 252 246 239 237 233 225 223 224 223 223 225 226 226 227 227 228 229 228 225 214 206 208 208 211 204 203 199 191 189 183 177 172 171 160 147 149 154 157 157 157 161 162
255 247 281 160 155 207 240 174 205 234 262 270 304 321 293 290 312 342 288 289 329 356 14 2 346 350 356 11 24 28 29 29 25 19 16 14 9 5 4 3 0 358 355 352 347 341 334 324 315 298 284 274 265 258 252 250 248 243 239 234 229 225 222 220 222 226 225 223 225 225 224 224 223 224 216 207 205 204 209 204 202 198 191 189 187 186 178 174 170 161 160 162 163 163 160 161 163
214 274 325 294 161 185 237 248 250 238 252 270 306 298 292 335 328 267 301 23 30 14 26 18 9 16 25 33 35 35 33 29 25 19 15 11 7 6 6 4 1 1 359 355 352 349 344 336 325 309 295 284 274 264 256 250 248 247 242 237 232 227 223 220 220 223 223 222 225 225 223 221 220 222 221 212 200 202 207 203 204 202 194 190 185 184 179 176 173 164 163 164 166 166 162 162 165
201 289 314 302 294 288 249 237 234 215 246 253 299 300 315 68 232 214 90 53 20 350 34 35 33 40 41 43 40 37 34 29 25 18 14 11 9 7 5 2 359 358 356 354 355 353 348 344 336 321 305 293 283 271 262 255 250 247 244 241 237 233 227 221 220 221 222 220 220 224 223 220 218 220 222 214 198 201 203 197 204 203 198 194 187 184 181 174 167 163 164 164 163 165 164 163 164
335 300 306 291 288 297 232 185 168 154 175 194 299 312 322 30 275 128 83 51 352 2 42 48 50 54 48 46 40 34 33 28 22 17 14 11 10 5 1 360 357 354 352 353 354 352 349 348 344 335 321 304 292 279 268 261 256 251 247 245 243 240 233 224 222 222 222 219 218 223 223 220 218 217 219 214 198 197 200 192 194 197 198 196 191 189 186 172 162 164 167 166 164 164 165 165 165
338 313 308 288 275 182 177 142 123 144 142 197 269 306 314 322 289 73 55 22 351 9 56 60 55 56 46 44 39 34 32 25 20 18 14 9 5 1 357 358 355 350 350 351 349 350 354 355 352 346 337 320 303 289 278 269 261 257 252 248 246 245 238 228 224 220 219 217 216 220 220 219 217 214 218 216 202 192 193 191 191 194 194 190 187 187 185 176 166 167 168 167 167 165 164 165 165
328 334 306 300 310 161 156 91 61 151 128 196 239 297 309 273 79 57 43 5 342 21 72 64 56 53 43 43 38 36 29 23 22 18 11 5 3 360 357 357 354 349 347 346 347 350 355 357 355 351 344 334 319 302 289 279 269 262 257 252 249 246 240 232 228 222 218 217 214 216 217 217 216 212 216 218 208 195 191 189 191 192 191 187 184 184 182 178 172 170 169 167 167 165 162 162 163
267 87 256 312 338 178 144 86 20 69 141 186 276 321 315 312 35 59 56 343 342 56 78 61 58 51 43 43 37 37 29 24 22 16 10 5 3 0 357 355 354 352 346 345 347 349 350 352 355 352 345 337 327 315 299 288 280 269 263 258 252 249 243 235 233 228 221 217 214 215 214 215 216 211 212 217 211 201 195 190 190 189 189 188 185 183 180 177 174 170 170 168 166 164 161 161 162
275 227 184 357 352 310 15 60 32 51 146 246 345 328 311 319 346 47 22 316 12 76 81 65 61 51 46 43 35 35 29 24 19 13 10 6 4 0 357 354 353 352 348 347 346 348 348 350 353 351 346 340 329 322 308 295 290 278 266 262 256 253 246 236 234 233 226 218 214 217 213 210 215 211 209 215 212 203 198 194 192 189 188 188 184 182 178 174 173 171 170 167 164 164 162 161 163
324 335 303 9 356 307 336 51 70 45 16 347 355 331 316 306 316 356 342 8 78 85 82 68 61 54 48 42 35 33 26 21 16 12 8 5 4 359 356 353 351 350 348 347 346 346 348 349 351 349 349 346 335 325 316 305 299 289 275 267 261 255 249 239 234 234 231 224 217 217 213 207 211 211 209 213 213 206 202 199 195 194 191 187 184 183 178 175 173 171 171 168 163 163 162 161 162
53 22 328 329 328 311 325 74 93 32 357 359 18 338 311 294 309 329 338 69 92 91 82 71 63 55 49 44 38 32 24 20 15 11 6 2 0 357 355 353 349 348 346 347 348 346 346 347 348 348 347 345 339 330 321 315 310 306 295 277 265 257 252 244 237 234 232 226 220 217 213 208 209 210 210 212 213 205 205 206 199 198 197 193 190 187 182 178 177 174 172 171 167 164 163 161 159
345 356 325 306 307 305 313 319 76 20 351 320 297 243 293 296 312 324 355 91 99 93 82 71 62 54 49 45 38 33 26 21 15 9 4 359 357 355 355 354 350 347 345 346 347 347 346 345 345 345 345 343 340 335 327 321 319 318 311 289 267 258 254 248 241 236 234 229 223 219 215 213 212 211 210 211 209 203 205 207 203 200 197 194 190 189 186 180 179 177 173 172 171 167 164 162 159
311 321 316 303 299 288 297 305 359 6 342 316 313 356 318 303 310 338 48 95 98 90 83 70 60 52 47 42 35 33 26 20 13 5 0 356 354 354 354 356 355 352 348 346 346 347 346 346 346 345 345 344 341 337 332 325 322 321 319 308 278 260 255 251 245 237 233 231 228 226 221 216 215 213 211 208 203 201 202 203 204 199 194 189 185 186 185 182 181 179 175 171 172 170 168 165 163
299 305 298 296 302 286 289 302 344 360 336 324 334 339 330 310 320 11 80 97 92 89 79 63 56 48 43 39 33 27 22 17 8 1 358 353 351 350 351 354 356 355 353 348 346 347 347 346 347 347 347 344 342 340 338 332 325 322 319 315 298 272 256 249 247 241 233 228 227 228 223 218 217 213 209 205 199 199 199 199 200 196 192 188 184 183 184 183 182 180 176 172 171 171 169 166 163
284 296 285 290 301 295 298 303 346 9 339 326 332 333 336 318 332 47 102 95 83 80 66 57 50 45 43 38 31 21 18 10 0 360 358 354 350 347 347 349 351 353 354 352 349 348 347 346 345 346 347 345 344 341 340 336 329 324 318 312 306 293 272 252 247 242 234 230 229 229 225 220 218 211 206 203 200 199 196 196 196 193 192 188 186 185 184 183 181 179 176 173 172 168 163 162 162
275 294 296 300 302 305 304 293 345 11 343 320 325 333 345 323 336 80 105 88 83 72 60 56 42 43 40 30 24 12 10 1 355 358 358 356 352 348 347 347 347 349 350 350 350 347 346 346 344 342 343 345 344 341 339 336 330 325 318 310 305 302 292 271 256 245 237 233 231 231 229 224 219 209 206 205 203 199 194 191 191 191 190 188 186 185 184 182 179 178 175 172 173 168 162 162 163
286 305 301 303 321 322 307 231 13 355 328 316 326 330 327 325 24 93 98 92 95 81 72 63 42 41 30 22 18 4 1 355 353 355 354 355 352 349 347 343 343 343 341 342 345 344 343 344 342 340 340 342 343 341 338 333 329 326 319 310 303 301 300 290 276 261 245 235 232 231 230 228 226 215 208 207 205 199 193 190 190 190 188 186 184 181 182 182 180 179 176 173 172 168 164 165 167
287 324 305 309 343 340 316 297 334 322 286 303 321 316 304 331 92 95 98 107 113 107 84 62 46 39 23 15 5 354 352 349 349 349 348 349 348 349 346 340 338 335 334 337 339 339 338 337 337 336 336 338 340 340 338 334 330 329 324 319 312 305 302 299 292 278 257 241 236 234 231 230 229 222 212 208 206 200 194 192 191 189 188 186 183 180 181 181 180 181 180 175 171 167 163 167 172
317 23 331 321 337 328 303 310 321 316 283 330 334 319 286 127 111 111 119 118 111 91 50 36 37 33 18 11 360 350 345 341 342 342 343 343 344 347 346 341 336 328 327 332 334 333 331 329 330 331 331 333 336 338 338 336 333 331 328 325 324 321 313 305 297 286 268 249 236 232 231 230 228 224 214 206 206 201 196 194 192 190 188 188 185 182 181 182 182 181 182 179 175 170 163 167 175
310 88 29 325 317 313 310 317 327 322 307 52 14 331 283 97 98 141 135 105 83 55 31 25 23 20 11 4 359 352 344 340 340 342 343 342 343 346 344 339 332 326 325 326 327 326 323 322 324 326 327 327 330 334 336 337 334 330 327 325 323 322 316 307 298 291 281 264 245 233 230 229 227 224 215 208 206 203 198 195 192 190 189 189 186 182 182 182 182 183 183 182 179 175 166 166 174
302 79 6 314 305 312 315 321 329 311 301 12 32 309 273 314 81 138 129 100 81 43 27 24 16 14 8 359 356 352 348 349 348 348 346 342 342 343 341 337 331 326 323 321 320 320 321 320 320 322 323 322 323 327 331 334 333 329 327 323 320 319 315 310 304 298 292 279 259 240 231 229 228 224 218 212 206 202 199 195 193 190 188 187 186 184 184 183 184 184 184 183 180 176 171 169 173
297 84 320 306 310 312 312 315 302 285 304 315 185 226 269 300 157 143 133 109 66 29 18 14 11 9 4 0 359 356 354 353 349 346 344 340 338 337 335 333 330 325 320 316 315 315 317 318 318 318 319 319 319 320 323 326 327 327 325 324 322 322 318 313 309 304 300 290 270 249 235 230 227 223 219 214 207 203 200 195 195 191 186 185 187 188 186 184 185 184 184 185 181 177 176 174 173
33 46 280 279 295 298 299 299 288 292 320 304 227 208 263 280 205 140 123 89 21 14 8 5 7 3 360 359 357 356 354 351 346 341 338 336 335 333 331 329 327 325 320 312 310 310 310 313 315 314 314 315 317 317 317 317 319 320 321 323 322 323 323 319 315 311 307 297 278 258 242 231 226 222 217 213 207 204 201 196 196 194 188 186 188 189 189 187 186 185 185 186 183 181 181 179 177
347 306 259 258 274 281 277 278 292 310 298 282 276 205 265 280 274 277 111 87 16 0 359 3 3 359 359 357 354 353 350 346 341 335 333 332 330 329 327 326 325 324 321 314 309 306 306 308 310 310 309 309 311 311 308 307 312 313 316 320 318 322 328 325 321 318 315 309 291 268 248 232 225 221 215 212 207 203 200 196 195 195 190 186 187 188 188 189 188 188 187 186 185 184 184 183 182
290 283 298 299 293 283 273 275 302 308 265 258 211 122 327 297 272 275 102 85 29 358 353 357 358 358 358 354 350 347 343 338 334 330 329 327 326 324 323 322 321 321 319 316 311 306 303 304 303 304 304 302 303 306 302 297 301 304 308 315 314 318 327 326 323 320 318 318 307 288 264 237 224 222 216 211 207 202 198 196 196 195 191 188 189 189 189 190 190 189 187 185 185 185 185 185 185
276 5 357 331 307 270 259 263 216 255 262 178 160 115 332 277 262 105 113 80 31 6 358 356 358 358 354 347 342 340 336 332 329 327 326 325 323 323 322 320 318 317 315 313 311 307 303 302 300 298 299 299 298 300 300 295 292 293 296 304 308 311 322 325 321 318 316 316 312 306 291 256 227 220 216 210 206 202 197 196 196 194 191 189 188 187 189 191 190 189 187 185 185 187 186 186 186
24 37 12 332 315 313 283 278 250 258 253 158 148 10 313 266 274 156 132 74 24 8 6 3 360 353 345 340 335 333 332 328 327 325 325 324 321 321 320 318 316 314 313 311 310 308 303 301 299 296 295 296 294 293 296 294 288 288 290 295 303 306 315 321 319 317 314 313 311 312 309 286 245 220 212 208 205 201 197 196 194 192 191 189 186 185 186 189 189 189 188 187 187 188 189 188 189
43 46 27 331 330 327 300 298 299 283 264 169 152 344 276 267 271 165 140 55 15 8 11 7 356 343 336 332 327 327 328 324 324 323 323 323 320 319 318 317 316 315 313 311 311 310 306 302 300 296 292 292 291 286 288 291 285 281 283 286 294 299 306 315 318 317 313 312 311 308 308 305 282 238 212 206 204 200 197 197 195 193 194 192 189 186 186 188 189 189 190 189 189 191 191 190 192
70 95 167 265 287 284 284 305 312 304 304 283 239 205 245 288 147 150 149 34 7 6 5 354 342 334 330 327 322 325 325 322 322 320 321 322 320 319 318 317 316 315 314 312 311 311 309 305 301 297 293 291 291 285 282 285 283 277 275 276 283 287 293 305 311 314 314 311 310 308 305 305 301 276 228 207 204 199 196 196 194 192 194 194 192 190 189 189 190 190 191 190 190 191 192 191 192
106 124 226 249 204 241 268 302 295 292 301 293 241 206 254 271 139 146 150 352 0 359 349 337 333 330 329 325 323 325 323 322 323 320 321 322 321 321 320 318 314 313 314 312 310 310 308 305 300 297 294 290 290 286 278 280 281 277 268 267 274 277 282 291 299 308 314 310 305 304 304 301 303 298 258 215 203 201 196 194 194 193 194 193 192 192 191 191 192 192 191 191 190 190 191 191 191
141 188 241 123 98 238 269 286 154 242 277 278 264 274 286 260 156 143 37 352 351 346 337 333 331 330 330 326 327 328 325 324 324 323 323 324 321 320 319 317 314 312 312 312 311 310 307 304 300 297 295 291 288 284 278 276 278 276 269 264 267 270 275 280 288 299 306 309 305 299 302 302 300 304 284 230 205 203 199 195 195 195 194 193 191 190 191 190 193 193 190 190 190 189 190 191 191
178 241 330 101 139 162 206 280 307 283 273 272 280 285 291 293 252 134 10 347 342 336 335 333 332 333 330 327 329 329 326 324 324 323 324 324 322 320 317 314 313 312 312 312 311 310 307 306 303 299 295 291 288 284 279 274 273 275 270 263 263 265 272 277 283 292 294 302 305 297 299 304 300 304 298 254 210 202 202 198 196 195 193 193 190 188 189 190 192 193 190 190 190 189 190 191 192
360 298 24 99 233 189 149 186 300 293 283 281 290 294 290 282 281 20 346 341 339 334 334 332 332 333 328 327 329 327 325 323 323 323 323 323 321 319 317 313 312 314 313 313 314 313 313 315 313 307 300 294 287 281 277 272 269 271 269 263 263 263 267 273 277 285 287 289 297 297 296 302 301 302 304 279 220 199 199 197 195 194 192 192 190 188 188 188 190 191 190 190 190 189 188 190 192
56 209 155 249 283 218 181 140 271 273 276 281 299 309 298 244 113 353 335 341 338 331 332 331 329 329 325 326 327 324 324 321 321 322 323 323 316 314 315 313 313 315 315 316 319 318 315 314 311 307 305 300 291 281 275 271 267 267 267 263 262 262 260 266 273 279 284 285 292 299 297 298 301 300 304 292 238 201 195 195 193 192 191 191 191 190 188 186 187 190 190 190 190 188 187 189 191
172 194 186 198 171 150 221 231 176 236 267 273 288 293 281 150 70 337 328 337 334 328 328 325 324 324 323 324 325 323 322 320 319 319 320 321 316 312 314 316 316 316 317 320 319 314 309 307 304 300 300 301 297 288 280 273 268 265 265 263 262 262 258 260 269 275 283 289 292 299 299 297 301 299 302 300 260 208 194 193 192 191 191 191 191 190 188 186 185 188 190 191 190 188 187 189 189
217 217 197 186 163 153 258 256 173 167 242 242 266 279 279 269 317 308 317 328 328 326 323 320 322 323 323 324 323 321 320 320 320 318 314 314 315 315 316 317 319 319 318 318 317 314 311 311 310 305 301 300 299 298 293 285 277 270 267 265 262 261 257 257 265 271 278 287 291 297 301 298 301 301 300 303 282 225 198 193 192 190 190 190 190 190 188 186 185 186 188 190 189 189 188 188 188